Location: Middle Street
(51.7167°N, 0.0333°E)
Time: 02:14:09
(UTC+00:00)

COSMOS 2455 - Pass Details

Date: 20 January 2021
Orbit: 901 x 908 km, 67.1° (Epoch: 28 February)

Event Time Altitude Azimuth Distance (km) Brightness Sun altitude
Rises 17:41:25 0° 189° (S) 3,519 6.3 -11.1°
Reaches altitude 10° 17:44:02 10° 182° (S) 2,583 5.5 -11.5°
Maximum altitude 17:49:34 40° 115° (ESE) 1,315 3.4 -12.3°
Enters shadow 17:54:02 15° 52° (NE) 2,236 4.3 -13.0°
